Time,TemperatureF,DewpointF,PressureIn,WindDirection,WindDirectionDegrees,WindSpeedMPH,WindSpeedGustMPH,Humidity,HourlyPrecipIn,Conditions,Clouds,dailyrainin,SoftwareType,DateUTC
2013-08-31 00:00:00,55.9,46.3,29.54,WNW,297,0.0,4.0,70,0.00,,,0.00,Wunderground v.1.15,2013-08-31 06:00:00,
2013-08-31 00:05:00,55.8,45.8,29.54,WNW,297,0.0,4.0,69,0.00,,,0.00,Wunderground v.1.15,2013-08-31 06:05:00,
2013-08-31 00:10:00,55.6,45.6,29.54,WNW,297,0.0,4.0,69,0.00,,,0.00,Wunderground v.1.15,2013-08-31 06:10:00,
2013-08-31 00:15:00,55.5,45.9,29.54,WNW,297,0.0,4.0,70,0.00,,,0.00,Wunderground v.1.15,2013-08-31 06:15:00,
2013-08-31 00:20:00,55.4,46.2,29.54,WNW,297,0.0,4.0,71,0.00,,,0.00,Wunderground v.1.15,2013-08-31 06:20:00,
2013-08-31 00:30:00,55.0,46.1,29.55,WNW,297,0.0,4.0,72,0.00,,,0.00,Wunderground v.1.15,2013-08-31 06:30:00,
2013-08-31 00:35:00,54.8,45.6,29.55,WNW,297,0.0,4.0,71,0.00,,,0.00,Wunderground v.1.15,2013-08-31 06:35:00,
2013-08-31 00:40:00,54.7,45.8,29.55,WNW,297,0.0,4.0,72,0.00,,,0.00,Wunderground v.1.15,2013-08-31 06:40:00,
2013-08-31 00:45:00,54.7,45.8,29.55,WNW,297,0.0,4.0,72,0.00,,,0.00,Wunderground v.1.15,2013-08-31 06:45:00,
2013-08-31 00:50:00,54.6,46.1,29.55,WNW,297,0.0,4.0,73,0.00,,,0.00,Wunderground v.1.15,2013-08-31 06:50:00,
2013-08-31 00:55:00,54.4,45.9,29.55,WNW,297,0.0,4.0,73,0.00,,,0.00,Wunderground v.1.15,2013-08-31 06:55:00,
2013-08-31 01:00:00,54.3,45.8,29.55,WNW,297,0.0,4.0,73,0.00,,,0.00,Wunderground v.1.15,2013-08-31 07:00:00,
2013-08-31 01:05:00,54.1,46.0,29.55,WNW,297,0.0,4.0,74,0.00,,,0.00,Wunderground v.1.15,2013-08-31 07:05:00,
2013-08-31 01:10:00,53.9,45.4,29.55,WNW,297,0.0,4.0,73,0.00,,,0.00,Wunderground v.1.15,2013-08-31 07:10:00,
2013-08-31 01:15:00,53.8,45.7,29.55,WNW,297,0.0,4.0,74,0.00,,,0.00,Wunderground v.1.15,2013-08-31 07:15:00,
2013-08-31 01:20:00,53.6,45.9,29.55,WNW,297,0.0,4.0,75,0.00,,,0.00,Wunderground v.1.15,2013-08-31 07:20:00,
2013-08-31 01:25:00,53.2,45.1,29.55,WNW,297,0.0,4.0,74,0.00,,,0.00,Wunderground v.1.15,2013-08-31 07:25:00,
2013-08-31 01:30:00,53.0,44.6,29.55,WNW,297,0.0,4.0,73,0.00,,,0.00,Wunderground v.1.15,2013-08-31 07:30:00,
2013-08-31 01:35:00,53.0,45.3,29.55,WNW,297,0.0,4.0,75,0.00,,,0.00,Wunderground v.1.15,2013-08-31 07:35:00,
2013-08-31 01:40:00,52.8,45.4,29.54,WNW,297,0.0,4.0,76,0.00,,,0.00,Wunderground v.1.15,2013-08-31 07:40:00,
2013-08-31 01:50:00,52.2,45.2,29.54,WNW,297,0.0,4.0,77,0.00,,,0.00,Wunderground v.1.15,2013-08-31 07:50:00,
2013-08-31 01:55:00,52.2,45.2,29.54,WNW,297,0.0,4.0,77,0.00,,,0.00,Wunderground v.1.15,2013-08-31 07:55:00,
2013-08-31 02:00:00,52.0,45.0,29.54,WNW,297,0.0,4.0,77,0.00,,,0.00,Wunderground v.1.15,2013-08-31 08:00:00,
2013-08-31 02:05:00,51.7,45.1,29.54,WNW,297,0.0,4.0,78,0.00,,,0.00,Wunderground v.1.15,2013-08-31 08:05:00,
2013-08-31 02:10:00,51.7,44.4,29.54,WNW,297,0.0,4.0,76,0.00,,,0.00,Wunderground v.1.15,2013-08-31 08:10:00,
2013-08-31 02:15:00,51.7,44.0,29.54,WNW,297,0.0,4.0,75,0.00,,,0.00,Wunderground v.1.15,2013-08-31 08:15:00,
2013-08-31 02:20:00,51.8,44.5,29.54,WNW,297,0.0,4.0,76,0.00,,,0.00,Wunderground v.1.15,2013-08-31 08:20:00,
2013-08-31 02:25:00,52.0,44.7,29.54,WNW,297,0.0,4.0,76,0.00,,,0.00,Wunderground v.1.15,2013-08-31 08:25:00,
2013-08-31 02:30:00,52.0,44.7,29.54,WNW,297,0.0,4.0,76,0.00,,,0.00,Wunderground v.1.15,2013-08-31 08:30:00,
2013-08-31 02:35:00,52.2,44.5,29.54,WNW,297,0.0,4.0,75,0.00,,,0.00,Wunderground v.1.15,2013-08-31 08:35:00,
2013-08-31 02:40:00,52.2,44.5,29.54,WNW,297,0.0,4.0,75,0.00,,,0.00,Wunderground v.1.15,2013-08-31 08:40:00,
2013-08-31 02:45:00,52.2,44.5,29.54,WNW,297,0.0,4.0,75,0.00,,,0.00,Wunderground v.1.15,2013-08-31 08:45:00,
2013-08-31 02:55:00,52.3,44.6,29.54,WNW,297,0.0,4.0,75,0.00,,,0.00,Wunderground v.1.15,2013-08-31 08:55:00,
2013-08-31 03:00:00,52.6,44.5,29.54,WNW,297,0.0,4.0,74,0.00,,,0.00,Wunderground v.1.15,2013-08-31 09:00:00,
2013-08-31 03:05:00,52.6,44.9,29.53,WNW,297,0.0,4.0,75,0.00,,,0.00,Wunderground v.1.15,2013-08-31 09:05:00,
2013-08-31 03:10:00,52.8,44.4,29.54,WNW,297,0.0,4.0,73,0.00,,,0.00,Wunderground v.1.15,2013-08-31 09:10:00,
2013-08-31 03:15:00,53.1,45.0,29.54,WNW,297,0.0,4.0,74,0.00,,,0.00,Wunderground v.1.15,2013-08-31 09:15:00,
2013-08-31 03:20:00,53.0,44.2,29.54,WNW,297,0.0,4.0,72,0.00,,,0.00,Wunderground v.1.15,2013-08-31 09:20:00,
2013-08-31 03:25:00,53.0,44.2,29.54,WNW,297,0.0,4.0,72,0.00,,,0.00,Wunderground v.1.15,2013-08-31 09:25:00,
2013-08-31 03:30:00,52.9,44.5,29.54,WNW,297,0.0,4.0,73,0.00,,,0.00,Wunderground v.1.15,2013-08-31 09:30:00,
2013-08-31 03:35:00,52.8,44.4,29.54,WNW,297,0.0,4.0,73,0.00,,,0.00,Wunderground v.1.15,2013-08-31 09:35:00,
2013-08-31 03:40:00,52.6,44.2,29.54,WNW,297,0.0,4.0,73,0.00,,,0.00,Wunderground v.1.15,2013-08-31 09:40:00,
2013-08-31 03:45:00,52.7,44.3,29.54,WNW,297,0.0,4.0,73,0.00,,,0.00,Wunderground v.1.15,2013-08-31 09:45:00,
2013-08-31 03:50:00,52.8,44.4,29.54,WNW,297,0.0,4.0,73,0.00,,,0.00,Wunderground v.1.15,2013-08-31 09:50:00,
2013-08-31 03:55:00,53.0,44.2,29.54,WNW,297,0.0,4.0,72,0.00,,,0.00,Wunderground v.1.15,2013-08-31 09:55:00,
2013-08-31 04:00:00,53.0,44.9,29.54,WNW,297,0.0,4.0,74,0.00,,,0.00,Wunderground v.1.15,2013-08-31 10:00:00,
2013-08-31 04:05:00,52.8,44.7,29.54,WNW,297,0.0,4.0,74,0.00,,,0.00,Wunderground v.1.15,2013-08-31 10:05:00,
2013-08-31 04:15:00,52.4,44.0,29.54,WNW,297,0.0,4.0,73,0.00,,,0.00,Wunderground v.1.15,2013-08-31 10:15:00,
2013-08-31 04:20:00,52.4,44.4,29.54,WNW,297,0.0,4.0,74,0.00,,,0.00,Wunderground v.1.15,2013-08-31 10:20:00,
2013-08-31 04:25:00,52.4,44.4,29.53,WNW,297,0.0,4.0,74,0.00,,,0.00,Wunderground v.1.15,2013-08-31 10:25:00,
2013-08-31 04:30:00,52.3,44.6,29.53,WNW,297,0.0,4.0,75,0.00,,,0.00,Wunderground v.1.15,2013-08-31 10:30:00,
2013-08-31 04:35:00,52.2,44.5,29.53,WNW,297,0.0,4.0,75,0.00,,,0.00,Wunderground v.1.15,2013-08-31 10:35:00,
2013-08-31 04:40:00,52.2,44.9,29.53,WNW,297,0.0,4.0,76,0.00,,,0.00,Wunderground v.1.15,2013-08-31 10:40:00,
2013-08-31 04:45:00,52.2,44.5,29.53,WNW,297,0.0,4.0,75,0.00,,,0.00,Wunderground v.1.15,2013-08-31 10:45:00,
2013-08-31 04:50:00,52.3,44.6,29.53,WNW,297,0.0,4.0,75,0.00,,,0.00,Wunderground v.1.15,2013-08-31 10:50:00,
2013-08-31 04:55:00,52.3,45.0,29.53,WNW,297,0.0,4.0,76,0.00,,,0.00,Wunderground v.1.15,2013-08-31 10:55:00,
2013-08-31 05:00:00,52.4,44.7,29.53,WNW,297,0.0,4.0,75,0.00,,,0.00,Wunderground v.1.15,2013-08-31 11:00:00,
2013-08-31 05:05:00,52.4,44.7,29.53,WNW,297,0.0,4.0,75,0.00,,,0.00,Wunderground v.1.15,2013-08-31 11:05:00,
2013-08-31 05:10:00,52.4,44.7,29.53,WNW,297,0.0,4.0,75,0.00,,,0.00,Wunderground v.1.15,2013-08-31 11:10:00,
2013-08-31 05:15:00,52.4,45.1,29.52,WNW,297,0.0,4.0,76,0.00,,,0.00,Wunderground v.1.15,2013-08-31 11:15:00,
2013-08-31 05:20:00,52.3,44.6,29.52,WNW,297,0.0,4.0,75,0.00,,,0.00,Wunderground v.1.15,2013-08-31 11:20:00,
2013-08-31 05:25:00,52.3,44.6,29.52,WNW,297,0.0,4.0,75,0.00,,,0.00,Wunderground v.1.15,2013-08-31 11:25:00,
2013-08-31 05:30:00,52.2,44.5,29.52,WNW,297,0.0,4.0,75,0.00,,,0.00,Wunderground v.1.15,2013-08-31 11:30:00,
2013-08-31 05:35:00,52.0,44.3,29.52,WNW,297,0.0,4.0,75,0.00,,,0.00,Wunderground v.1.15,2013-08-31 11:35:00,
2013-08-31 05:40:00,52.0,44.3,29.52,WNW,297,0.0,4.0,75,0.00,,,0.00,Wunderground v.1.15,2013-08-31 11:40:00,
2013-08-31 05:45:00,51.9,44.6,29.52,WNW,297,0.0,4.0,76,0.00,,,0.00,Wunderground v.1.15,2013-08-31 11:45:00,
2013-08-31 05:50:00,51.7,44.0,29.52,WNW,297,0.0,4.0,75,0.00,,,0.00,Wunderground v.1.15,2013-08-31 11:50:00,
2013-08-31 05:55:00,51.6,43.9,29.52,WNW,297,0.0,4.0,75,0.00,,,0.00,Wunderground v.1.15,2013-08-31 11:55:00,
2013-08-31 06:00:00,51.6,43.9,29.52,WNW,297,0.0,4.0,75,0.00,,,0.00,Wunderground v.1.15,2013-08-31 12:00:00,
2013-08-31 06:05:00,51.8,44.1,29.52,WNW,297,0.0,4.0,75,0.00,,,0.00,Wunderground v.1.15,2013-08-31 12:05:00,
2013-08-31 06:10:00,51.8,44.5,29.52,WNW,297,0.0,4.0,76,0.00,,,0.00,Wunderground v.1.15,2013-08-31 12:10:00,
2013-08-31 06:15:00,51.8,44.1,29.53,WNW,297,0.0,4.0,75,0.00,,,0.00,Wunderground v.1.15,2013-08-31 12:15:00,
2013-08-31 06:20:00,51.9,44.2,29.53,WNW,297,0.0,4.0,75,0.00,,,0.00,Wunderground v.1.15,2013-08-31 12:20:00,
2013-08-31 06:25:00,52.0,44.3,29.53,WNW,297,0.0,4.0,75,0.00,,,0.00,Wunderground v.1.15,2013-08-31 12:25:00,
2013-08-31 06:30:00,52.3,44.3,29.53,WNW,297,0.0,4.0,74,0.00,,,0.00,Wunderground v.1.15,2013-08-31 12:30:00,
2013-08-31 06:35:00,52.7,44.6,29.53,WNW,297,0.0,4.0,74,0.00,,,0.00,Wunderground v.1.15,2013-08-31 12:35:00,
2013-08-31 06:40:00,52.9,44.8,29.53,WNW,297,0.0,4.0,74,0.00,,,0.00,Wunderground v.1.15,2013-08-31 12:40:00,
2013-08-31 06:45:00,53.1,44.7,29.53,WNW,297,0.0,4.0,73,0.00,,,0.00,Wunderground v.1.15,2013-08-31 12:45:00,
2013-08-31 06:50:00,53.4,45.3,29.53,WNW,297,0.0,4.0,74,0.00,,,0.00,Wunderground v.1.15,2013-08-31 12:50:00,
2013-08-31 06:55:00,53.6,45.5,29.53,WNW,297,0.0,4.0,74,0.00,,,0.00,Wunderground v.1.15,2013-08-31 12:55:00,
2013-08-31 07:00:00,53.8,45.7,29.53,WNW,297,0.0,4.0,74,0.00,,,0.00,Wunderground v.1.15,2013-08-31 13:00:00,
2013-08-31 07:05:00,53.9,45.8,29.53,WNW,297,0.0,4.0,74,0.00,,,0.00,Wunderground v.1.15,2013-08-31 13:05:00,
2013-08-31 07:10:00,54.0,45.5,29.53,WNW,297,0.0,4.0,73,0.00,,,0.00,Wunderground v.1.15,2013-08-31 13:10:00,
2013-08-31 07:15:00,54.2,45.4,29.53,WNW,297,0.0,4.0,72,0.00,,,0.00,Wunderground v.1.15,2013-08-31 13:15:00,
2013-08-31 07:20:00,54.7,45.5,29.53,WNW,297,0.0,4.0,71,0.00,,,0.00,Wunderground v.1.15,2013-08-31 13:20:00,
2013-08-31 07:25:00,55.2,46.3,29.53,WNW,297,0.0,4.0,72,0.00,,,0.00,Wunderground v.1.15,2013-08-31 13:25:00,
2013-08-31 07:30:00,55.5,45.5,29.53,WNW,297,0.0,4.0,69,0.00,,,0.00,Wunderground v.1.15,2013-08-31 13:30:00,
2013-08-31 07:35:00,55.9,47.7,29.54,WNW,297,0.0,4.0,74,0.00,,,0.00,Wunderground v.1.15,2013-08-31 13:35:00,
2013-08-31 07:40:00,56.1,46.8,29.54,WNW,297,0.0,4.0,71,0.00,,,0.00,Wunderground v.1.15,2013-08-31 13:40:00,
2013-08-31 07:50:00,56.8,48.2,29.54,WNW,297,0.0,4.0,73,0.00,,,0.00,Wunderground v.1.15,2013-08-31 13:50:00,
2013-08-31 07:55:00,57.2,47.5,29.54,WNW,297,0.0,4.0,70,0.00,,,0.00,Wunderground v.1.15,2013-08-31 13:55:00,
2013-08-31 08:00:00,57.6,47.5,29.54,WNW,297,0.0,4.0,69,0.00,,,0.00,Wunderground v.1.15,2013-08-31 14:00:00,
2013-08-31 08:05:00,58.0,47.9,29.54,WNW,297,0.0,4.0,69,0.00,,,0.00,Wunderground v.1.15,2013-08-31 14:05:00,
2013-08-31 08:10:00,58.5,48.7,29.54,WNW,297,0.0,4.0,70,0.00,,,0.00,Wunderground v.1.15,2013-08-31 14:10:00,
2013-08-31 08:15:00,59.7,49.1,29.54,WNW,297,0.0,4.0,68,0.00,,,0.00,Wunderground v.1.15,2013-08-31 14:15:00,
2013-08-31 08:20:00,61.2,48.9,29.54,WNW,297,0.0,4.0,64,0.00,,,0.00,Wunderground v.1.15,2013-08-31 14:20:00,
2013-08-31 08:25:00,62.7,47.2,29.54,WNW,302,0.0,4.0,57,0.00,,,0.00,Wunderground v.1.15,2013-08-31 14:25:00,
2013-08-31 08:30:00,64.1,47.1,29.54,SSW,207,0.0,4.0,54,0.00,,,0.00,Wunderground v.1.15,2013-08-31 14:30:00,
2013-08-31 08:35:00,65.5,47.9,29.54,SSW,207,0.0,4.0,53,0.00,,,0.00,Wunderground v.1.15,2013-08-31 14:35:00,
2013-08-31 08:40:00,66.9,46.6,29.54,SSW,206,0.0,4.0,48,0.00,,,0.00,Wunderground v.1.15,2013-08-31 14:40:00,
2013-08-31 08:45:00,68.2,46.6,29.54,SW,219,0.0,4.0,46,0.00,,,0.00,Wunderground v.1.15,2013-08-31 14:45:00,
2013-08-31 08:50:00,69.1,46.9,29.54,SW,220,0.0,4.0,45,0.00,,,0.00,Wunderground v.1.15,2013-08-31 14:50:00,
2013-08-31 08:55:00,70.1,47.2,29.53,SW,223,0.0,4.0,44,0.00,,,0.00,Wunderground v.1.15,2013-08-31 14:55:00,
2013-08-31 09:00:00,70.3,47.3,29.53,NW,304,0.0,4.0,44,0.00,,,0.00,Wunderground v.1.15,2013-08-31 15:00:00,
2013-08-31 09:05:00,69.6,47.9,29.53,WNW,300,0.0,4.0,46,0.00,,,0.00,Wunderground v.1.15,2013-08-31 15:05:00,
2013-08-31 09:10:00,68.8,47.2,29.53,WNW,300,0.0,4.0,46,0.00,,,0.00,Wunderground v.1.15,2013-08-31 15:10:00,
2013-08-31 09:15:00,68.2,47.2,29.53,WNW,300,0.0,4.0,47,0.00,,,0.00,Wunderground v.1.15,2013-08-31 15:15:00,
2013-08-31 09:20:00,67.7,47.3,29.54,WNW,300,0.0,4.0,48,0.00,,,0.00,Wunderground v.1.15,2013-08-31 15:20:00,
2013-08-31 09:25:00,67.4,47.6,29.53,WNW,300,0.0,4.0,49,0.00,,,0.00,Wunderground v.1.15,2013-08-31 15:25:00,
2013-08-31 09:30:00,67.3,48.0,29.54,WNW,300,0.0,4.0,50,0.00,,,0.00,Wunderground v.1.15,2013-08-31 15:30:00,
2013-08-31 09:40:00,67.5,46.6,29.53,WNW,299,0.0,4.0,47,0.00,,,0.00,Wunderground v.1.15,2013-08-31 15:40:00,
2013-08-31 09:45:00,67.9,46.3,29.53,WNW,292,0.0,4.0,46,0.00,,,0.00,Wunderground v.1.15,2013-08-31 15:45:00,
2013-08-31 09:50:00,68.4,45.6,29.53,WNW,292,0.0,4.0,44,0.00,,,0.00,Wunderground v.1.15,2013-08-31 15:50:00,
2013-08-31 09:55:00,68.8,47.2,29.54,WNW,288,0.0,4.0,46,0.00,,,0.00,Wunderground v.1.15,2013-08-31 15:55:00,
2013-08-31 10:00:00,69.1,46.9,29.53,WNW,296,0.0,4.0,45,0.00,,,0.00,Wunderground v.1.15,2013-08-31 16:00:00,
2013-08-31 10:05:00,69.2,48.1,29.54,WNW,295,0.0,4.0,47,0.00,,,0.00,Wunderground v.1.15,2013-08-31 16:05:00,
2013-08-31 10:10:00,69.2,48.1,29.53,WNW,293,0.0,4.0,47,0.00,,,0.00,Wunderground v.1.15,2013-08-31 16:10:00,
2013-08-31 10:15:00,68.9,47.8,29.54,WSW,255,0.0,4.0,47,0.00,,,0.00,Wunderground v.1.15,2013-08-31 16:15:00,
2013-08-31 10:20:00,69.5,47.8,29.53,South,188,0.0,4.0,46,0.00,,,0.00,Wunderground v.1.15,2013-08-31 16:20:00,
2013-08-31 10:25:00,70.6,48.2,29.53,SSW,192,0.0,4.0,45,0.00,,,0.00,Wunderground v.1.15,2013-08-31 16:25:00,
2013-08-31 10:30:00,71.5,48.4,29.53,SSW,192,0.0,4.0,44,0.00,,,0.00,Wunderground v.1.15,2013-08-31 16:30:00,
2013-08-31 10:35:00,71.9,47.6,29.53,SSW,194,0.0,4.0,42,0.00,,,0.00,Wunderground v.1.15,2013-08-31 16:35:00,
2013-08-31 10:40:00,71.9,48.2,29.53,SSW,195,0.0,4.0,43,0.00,,,0.00,Wunderground v.1.15,2013-08-31 16:40:00,
2013-08-31 10:45:00,71.6,48.5,29.53,SSW,201,0.0,4.0,44,0.00,,,0.00,Wunderground v.1.15,2013-08-31 16:45:00,
2013-08-31 10:50:00,71.2,47.6,29.53,SSW,201,0.0,4.0,43,0.00,,,0.00,Wunderground v.1.15,2013-08-31 16:50:00,
2013-08-31 10:55:00,71.1,46.8,29.54,SSW,201,0.0,4.0,42,0.00,,,0.00,Wunderground v.1.15,2013-08-31 16:55:00,
2013-08-31 11:00:00,71.1,46.2,29.53,SSW,203,0.0,4.0,41,0.00,,,0.00,Wunderground v.1.15,2013-08-31 17:00:00,
2013-08-31 11:05:00,71.3,47.0,29.53,SSW,203,0.0,4.0,42,0.00,,,0.00,Wunderground v.1.15,2013-08-31 17:05:00,
2013-08-31 11:10:00,71.4,47.1,29.53,SSW,206,0.0,4.0,42,0.00,,,0.00,Wunderground v.1.15,2013-08-31 17:10:00,
2013-08-31 11:15:00,71.6,45.3,29.53,SSW,211,0.0,4.0,39,0.00,,,0.00,Wunderground v.1.15,2013-08-31 17:15:00,
2013-08-31 11:20:00,71.7,46.1,29.53,SW,220,0.0,4.0,40,0.00,,,0.00,Wunderground v.1.15,2013-08-31 17:20:00,
2013-08-31 11:25:00,71.9,46.3,29.53,SW,217,0.0,4.0,40,0.00,,,0.00,Wunderground v.1.15,2013-08-31 17:25:00,
2013-08-31 11:30:00,72.1,47.1,29.53,SW,217,0.0,4.0,41,0.00,,,0.00,Wunderground v.1.15,2013-08-31 17:30:00,
2013-08-31 11:35:00,72.3,47.3,29.53,SW,216,0.0,4.0,41,0.00,,,0.00,Wunderground v.1.15,2013-08-31 17:35:00,
2013-08-31 11:40:00,72.3,47.3,29.53,South,186,1.0,1.0,41,0.00,,,0.00,Wunderground v.1.15,2013-08-31 17:40:00,
2013-08-31 11:45:00,72.5,46.8,29.53,NW,314,1.0,4.0,40,0.00,,,0.00,Wunderground v.1.15,2013-08-31 17:45:00,
2013-08-31 11:50:00,73.3,45.4,29.52,WNW,294,0.0,4.0,37,0.00,,,0.00,Wunderground v.1.15,2013-08-31 17:50:00,
2013-08-31 11:55:00,74.2,47.0,29.52,North,360,0.0,4.0,38,0.00,,,0.00,Wunderground v.1.15,2013-08-31 17:55:00,
2013-08-31 12:00:00,75.0,45.5,29.52,SSE,163,0.0,4.0,35,0.00,,,0.00,Wunderground v.1.15,2013-08-31 18:00:00,
2013-08-31 12:05:00,75.6,46.0,29.52,South,171,0.0,4.0,35,0.00,,,0.00,Wunderground v.1.15,2013-08-31 18:05:00,
2013-08-31 12:15:00,77.1,45.0,29.51,SSE,163,0.0,8.0,32,0.00,,,0.00,Wunderground v.1.15,2013-08-31 18:15:00,
2013-08-31 12:20:00,78.0,45.7,29.51,SSE,161,1.0,8.0,32,0.00,,,0.00,Wunderground v.1.15,2013-08-31 18:20:00,
2013-08-31 12:25:00,78.8,43.8,29.51,West,267,1.0,1.0,29,0.00,,,0.00,Wunderground v.1.15,2013-08-31 18:25:00,
2013-08-31 12:35:00,78.7,44.7,29.50,SE,139,1.0,1.0,30,0.00,,,0.00,Wunderground v.1.15,2013-08-31 18:35:00,
2013-08-31 12:40:00,78.8,45.6,29.50,ESE,103,1.0,4.0,31,0.00,,,0.00,Wunderground v.1.15,2013-08-31 18:40:00,
2013-08-31 12:45:00,79.1,45.0,29.50,NNW,339,1.0,1.0,30,0.00,,,0.00,Wunderground v.1.15,2013-08-31 18:45:00,
2013-08-31 12:50:00,79.2,44.2,29.50,SSE,159,1.0,4.0,29,0.00,,,0.00,Wunderground v.1.15,2013-08-31 18:50:00,
2013-08-31 12:55:00,79.3,44.3,29.49,SSW,212,1.0,4.0,29,0.00,,,0.00,Wunderground v.1.15,2013-08-31 18:55:00,
2013-08-31 13:00:00,79.4,44.4,29.49,WSW,258,1.0,1.0,29,0.00,,,0.00,Wunderground v.1.15,2013-08-31 19:00:00,
2013-08-31 13:05:00,80.1,44.0,29.49,WSW,239,1.0,4.0,28,0.00,,,0.00,Wunderground v.1.15,2013-08-31 19:05:00,
2013-08-31 13:10:00,80.9,43.8,29.49,South,187,1.0,1.0,27,0.00,,,0.00,Wunderground v.1.15,2013-08-31 19:10:00,
2013-08-31 13:15:00,80.9,42.8,29.49,North,5,2.0,2.0,26,0.00,,,0.00,Wunderground v.1.15,2013-08-31 19:15:00,
2013-08-31 13:20:00,80.7,43.6,29.49,NW,311,2.0,2.0,27,0.00,,,0.00,Wunderground v.1.15,2013-08-31 19:20:00,
2013-08-31 13:25:00,80.8,42.7,29.48,SSE,159,1.0,4.0,26,0.00,,,0.00,Wunderground v.1.15,2013-08-31 19:25:00,
2013-08-31 13:30:00,81.4,42.2,29.48,SSW,198,1.0,1.0,25,0.00,,,0.00,Wunderground v.1.15,2013-08-31 19:30:00,
2013-08-31 13:35:00,81.4,42.2,29.48,SSW,198,1.0,4.0,25,0.00,,,0.00,Wunderground v.1.15,2013-08-31 19:35:00,
2013-08-31 13:40:00,81.6,42.4,29.48,South,173,0.0,4.0,25,0.00,,,0.00,Wunderground v.1.15,2013-08-31 19:40:00,
2013-08-31 13:45:00,81.1,43.0,29.48,NNW,327,1.0,4.0,26,0.00,,,0.00,Wunderground v.1.15,2013-08-31 19:45:00,
2013-08-31 13:50:00,80.3,41.3,29.48,SSE,165,1.0,4.0,25,0.00,,,0.00,Wunderground v.1.15,2013-08-31 19:50:00,
2013-08-31 13:55:00,79.6,41.7,29.48,WSW,249,1.0,4.0,26,0.00,,,0.00,Wunderground v.1.15,2013-08-31 19:55:00,
2013-08-31 14:00:00,79.3,41.4,29.48,ENE,61,0.0,4.0,26,0.00,,,0.00,Wunderground v.1.15,2013-08-31 20:00:00,
2013-08-31 14:05:00,78.9,41.1,29.48,SSE,159,1.0,4.0,26,0.00,,,0.00,Wunderground v.1.15,2013-08-31 20:05:00,
2013-08-31 14:10:00,78.3,43.4,29.48,WSW,242,1.0,1.0,29,0.00,,,0.00,Wunderground v.1.15,2013-08-31 20:10:00,
2013-08-31 14:15:00,77.9,43.1,29.48,WSW,243,1.0,4.0,29,0.00,,,0.00,Wunderground v.1.15,2013-08-31 20:15:00,
2013-08-31 14:20:00,77.9,43.1,29.48,SE,141,1.0,1.0,29,0.00,,,0.00,Wunderground v.1.15,2013-08-31 20:20:00,
2013-08-31 14:25:00,78.6,43.7,29.48,NE,46,1.0,4.0,29,0.00,,,0.00,Wunderground v.1.15,2013-08-31 20:25:00,
2013-08-31 14:30:00,79.1,41.3,29.48,South,170,1.0,1.0,26,0.00,,,0.00,Wunderground v.1.15,2013-08-31 20:30:00,
2013-08-31 14:35:00,79.4,41.5,29.48,NW,323,1.0,4.0,26,0.00,,,0.00,Wunderground v.1.15,2013-08-31 20:35:00,
2013-08-31 14:40:00,79.2,40.3,29.49,East,86,1.0,4.0,25,0.00,,,0.00,Wunderground v.1.15,2013-08-31 20:40:00,
2013-08-31 14:45:00,78.8,41.0,29.49,SSE,151,1.0,4.0,26,0.00,,,0.00,Wunderground v.1.15,2013-08-31 20:45:00,
2013-08-31 14:50:00,77.9,40.2,29.49,SW,225,1.0,1.0,26,0.00,,,0.00,Wunderground v.1.15,2013-08-31 20:50:00,
2013-08-31 14:55:00,77.1,44.1,29.51,WNW,300,1.0,4.0,31,0.00,,,0.00,Wunderground v.1.15,2013-08-31 20:55:00,
2013-08-31 15:00:00,74.9,45.4,29.51,NNW,348,1.0,1.0,35,0.00,,,0.00,Wunderground v.1.15,2013-08-31 21:00:00,
2013-08-31 15:05:00,72.8,46.4,29.51,WNW,297,1.0,4.0,39,0.00,,,0.00,Wunderground v.1.15,2013-08-31 21:05:00,
2013-08-31 15:10:00,71.1,46.2,29.52,NW,323,2.0,5.0,41,0.00,,,0.00,Wunderground v.1.15,2013-08-31 21:10:00,
2013-08-31 15:15:00,70.3,47.9,29.52,NW,321,2.0,5.0,45,0.00,,,0.00,Wunderground v.1.15,2013-08-31 21:15:00,
2013-08-31 15:20:00,69.0,47.9,29.52,NNW,331,2.0,2.0,47,0.00,,,0.00,Wunderground v.1.15,2013-08-31 21:20:00,
2013-08-31 15:25:00,68.0,48.1,29.52,West,279,1.0,5.0,49,0.00,,,0.00,Wunderground v.1.15,2013-08-31 21:25:00,
2013-08-31 15:30:00,67.3,46.9,29.52,North,350,1.0,1.0,48,0.00,,,0.00,Wunderground v.1.15,2013-08-31 21:30:00,
2013-08-31 15:35:00,67.3,47.5,29.52,West,260,1.0,3.0,49,0.00,,,0.00,Wunderground v.1.15,2013-08-31 21:35:00,
2013-08-31 15:40:00,67.8,46.8,29.51,NNW,331,2.0,4.0,47,0.00,,,0.00,Wunderground v.1.15,2013-08-31 21:40:00,
2013-08-31 15:45:00,68.3,47.3,29.51,North,360,2.0,4.0,47,0.00,,,0.00,Wunderground v.1.15,2013-08-31 21:45:00,
2013-08-31 15:50:00,68.1,47.1,29.51,North,11,2.0,4.0,47,0.00,,,0.00,Wunderground v.1.15,2013-08-31 21:50:00,
2013-08-31 15:55:00,68.1,46.5,29.51,ENE,63,2.0,4.0,46,0.00,,,0.00,Wunderground v.1.15,2013-08-31 21:55:00,
2013-08-31 16:00:00,68.4,47.4,29.51,North,360,2.0,2.0,47,0.00,,,0.00,Wunderground v.1.15,2013-08-31 22:00:00,
2013-08-31 16:05:00,68.9,47.3,29.51,WNW,287,2.0,4.0,46,0.00,,,0.00,Wunderground v.1.15,2013-08-31 22:05:00,
2013-08-31 16:10:00,69.7,46.8,29.51,ENE,66,1.0,4.0,44,0.00,,,0.00,Wunderground v.1.15,2013-08-31 22:10:00,
2013-08-31 16:15:00,69.9,47.0,29.51,ENE,57,1.0,4.0,44,0.00,,,0.00,Wunderground v.1.15,2013-08-31 22:15:00,
2013-08-31 16:20:00,69.5,48.4,29.51,East,86,2.0,2.0,47,0.00,,,0.00,Wunderground v.1.15,2013-08-31 22:20:00,
2013-08-31 16:25:00,69.6,47.9,29.51,ESE,114,1.0,4.0,46,0.00,,,0.00,Wunderground v.1.15,2013-08-31 22:25:00,
2013-08-31 16:30:00,70.0,48.3,29.51,ESE,122,0.0,4.0,46,0.00,,,0.00,Wunderground v.1.15,2013-08-31 22:30:00,
2013-08-31 16:35:00,70.1,48.9,29.51,ESE,109,1.0,4.0,47,0.00,,,0.00,Wunderground v.1.15,2013-08-31 22:35:00,
2013-08-31 16:40:00,69.7,49.1,29.51,ENE,78,1.0,1.0,48,0.00,,,0.00,Wunderground v.1.15,2013-08-31 22:40:00,
2013-08-31 16:45:00,69.4,49.4,29.51,East,95,0.0,4.0,49,0.00,,,0.00,Wunderground v.1.15,2013-08-31 22:45:00,
2013-08-31 16:50:00,68.9,48.9,29.51,SSE,155,0.0,4.0,49,0.00,,,0.00,Wunderground v.1.15,2013-08-31 22:50:00,
2013-08-31 16:55:00,68.2,48.3,29.52,SSE,160,1.0,4.0,49,0.00,,,0.00,Wunderground v.1.15,2013-08-31 22:55:00,
2013-08-31 17:05:00,68.3,48.9,29.52,ESE,114,0.0,4.0,50,0.00,,,0.00,Wunderground v.1.15,2013-08-31 23:05:00,
2013-08-31 17:10:00,68.4,49.0,29.52,ENE,70,0.0,4.0,50,0.00,,,0.00,Wunderground v.1.15,2013-08-31 23:10:00,
2013-08-31 17:15:00,68.4,48.5,29.52,SE,126,1.0,4.0,49,0.00,,,0.00,Wunderground v.1.15,2013-08-31 23:15:00,
2013-08-31 17:20:00,68.5,46.9,29.52,SSE,159,0.0,4.0,46,0.00,,,0.00,Wunderground v.1.15,2013-08-31 23:20:00,
2013-08-31 17:25:00,68.4,47.4,29.53,SE,138,0.0,4.0,47,0.00,,,0.00,Wunderground v.1.15,2013-08-31 23:25:00,
2013-08-31 17:30:00,67.9,48.0,29.53,ESE,122,0.0,4.0,49,0.00,,,0.00,Wunderground v.1.15,2013-08-31 23:30:00,
2013-08-31 17:35:00,67.4,48.6,29.53,ESE,122,0.0,4.0,51,0.00,,,0.00,Wunderground v.1.15,2013-08-31 23:35:00,
2013-08-31 17:40:00,67.1,49.4,29.53,ESE,119,0.0,4.0,53,0.00,,,0.00,Wunderground v.1.15,2013-08-31 23:40:00,
2013-08-31 17:45:00,66.8,49.6,29.53,ESE,119,0.0,4.0,54,0.00,,,0.00,Wunderground v.1.15,2013-08-31 23:45:00,
2013-08-31 17:50:00,66.6,49.4,29.53,ESE,119,0.0,4.0,54,0.00,,,0.00,Wunderground v.1.15,2013-08-31 23:50:00,
2013-08-31 17:55:00,66.5,49.3,29.54,ESE,119,0.0,4.0,54,0.00,,,0.00,Wunderground v.1.15,2013-08-31 23:55:00,
2013-08-31 18:00:00,66.4,49.2,29.53,ESE,119,0.0,4.0,54,0.00,,,0.00,Wunderground v.1.15,2013-09-01 00:00:00,
2013-08-31 18:05:00,66.2,49.6,29.54,ESE,119,0.0,4.0,55,0.00,,,0.00,Wunderground v.1.15,2013-09-01 00:05:00,
2013-08-31 18:10:00,66.0,49.8,29.54,ESE,119,0.0,4.0,56,0.00,,,0.00,Wunderground v.1.15,2013-09-01 00:10:00,
2013-08-31 18:15:00,65.6,50.4,29.55,ESE,119,0.0,4.0,58,0.00,,,0.00,Wunderground v.1.15,2013-09-01 00:15:00,
2013-08-31 18:20:00,65.1,50.0,29.55,ESE,119,0.0,4.0,58,0.00,,,0.00,Wunderground v.1.15,2013-09-01 00:20:00,
2013-08-31 18:25:00,64.5,50.3,29.55,ESE,119,0.0,4.0,60,0.00,,,0.00,Wunderground v.1.15,2013-09-01 00:25:00,
2013-08-31 18:30:00,64.1,50.4,29.55,ESE,119,0.0,4.0,61,0.00,,,0.00,Wunderground v.1.15,2013-09-01 00:30:00,
2013-08-31 18:35:00,63.8,50.5,29.55,ESE,119,0.0,4.0,62,0.00,,,0.00,Wunderground v.1.15,2013-09-01 00:35:00,
2013-08-31 18:40:00,63.7,49.5,29.55,ESE,119,0.0,4.0,60,0.00,,,0.00,Wunderground v.1.15,2013-09-01 00:40:00,
2013-08-31 18:45:00,63.6,49.0,29.55,ESE,119,0.0,4.0,59,0.00,,,0.00,Wunderground v.1.15,2013-09-01 00:45:00,
2013-08-31 18:50:00,63.6,49.5,29.55,ESE,119,0.0,4.0,60,0.00,,,0.00,Wunderground v.1.15,2013-09-01 00:50:00,
2013-08-31 18:55:00,63.6,49.0,29.55,ESE,119,0.0,4.0,59,0.00,,,0.00,Wunderground v.1.15,2013-09-01 00:55:00,
2013-08-31 19:05:00,63.7,49.1,29.55,ESE,119,0.0,4.0,59,0.00,,,0.00,Wunderground v.1.15,2013-09-01 01:05:00,
2013-08-31 19:10:00,63.6,49.0,29.55,ESE,119,0.0,4.0,59,0.00,,,0.00,Wunderground v.1.15,2013-09-01 01:10:00,
2013-08-31 19:15:00,63.4,49.3,29.55,ESE,119,0.0,4.0,60,0.00,,,0.00,Wunderground v.1.15,2013-09-01 01:15:00,
2013-08-31 19:20:00,63.2,49.1,29.55,ESE,119,0.0,4.0,60,0.00,,,0.00,Wunderground v.1.15,2013-09-01 01:20:00,
2013-08-31 19:25:00,63.0,49.3,29.56,ESE,119,0.0,4.0,61,0.00,,,0.00,Wunderground v.1.15,2013-09-01 01:25:00,
2013-08-31 19:30:00,62.9,50.1,29.56,ESE,119,0.0,4.0,63,0.00,,,0.00,Wunderground v.1.15,2013-09-01 01:30:00,
2013-08-31 19:35:00,62.8,50.0,29.56,ESE,119,0.0,4.0,63,0.00,,,0.00,Wunderground v.1.15,2013-09-01 01:35:00,
2013-08-31 19:40:00,62.7,50.3,29.56,ESE,119,0.0,4.0,64,0.00,,,0.00,Wunderground v.1.15,2013-09-01 01:40:00,
2013-08-31 19:45:00,62.6,50.7,29.56,ESE,119,0.0,4.0,65,0.00,,,0.00,Wunderground v.1.15,2013-09-01 01:45:00,
2013-08-31 19:50:00,62.5,51.0,29.56,ESE,119,0.0,4.0,66,0.00,,,0.00,Wunderground v.1.15,2013-09-01 01:50:00,
2013-08-31 19:55:00,62.3,51.2,29.56,ESE,119,0.0,4.0,67,0.00,,,0.00,Wunderground v.1.15,2013-09-01 01:55:00,
2013-08-31 20:00:00,62.1,51.0,29.56,ESE,119,0.0,4.0,67,0.00,,,0.00,Wunderground v.1.15,2013-09-01 02:00:00,
2013-08-31 20:05:00,62.0,51.3,29.56,ESE,119,0.0,4.0,68,0.00,,,0.00,Wunderground v.1.15,2013-09-01 02:05:00,
2013-08-31 20:10:00,61.8,51.1,29.56,ESE,119,0.0,4.0,68,0.00,,,0.00,Wunderground v.1.15,2013-09-01 02:10:00,
2013-08-31 20:15:00,61.6,50.9,29.57,ESE,119,0.0,4.0,68,0.00,,,0.00,Wunderground v.1.15,2013-09-01 02:15:00,
2013-08-31 20:20:00,61.4,50.7,29.57,ESE,119,0.0,4.0,68,0.00,,,0.00,Wunderground v.1.15,2013-09-01 02:20:00,
2013-08-31 20:25:00,61.1,50.8,29.57,ESE,119,0.0,4.0,69,0.00,,,0.00,Wunderground v.1.15,2013-09-01 02:25:00,
2013-08-31 20:30:00,60.9,50.7,29.57,ESE,119,0.0,4.0,69,0.00,,,0.00,Wunderground v.1.15,2013-09-01 02:30:00,
2013-08-31 20:35:00,60.6,50.4,29.57,ESE,119,0.0,4.0,69,0.00,,,0.00,Wunderground v.1.15,2013-09-01 02:35:00,
2013-08-31 20:40:00,60.3,50.5,29.57,ESE,119,0.0,4.0,70,0.00,,,0.00,Wunderground v.1.15,2013-09-01 02:40:00,
2013-08-31 20:45:00,59.9,50.1,29.57,ESE,119,0.0,4.0,70,0.00,,,0.00,Wunderground v.1.15,2013-09-01 02:45:00,
2013-08-31 20:50:00,59.5,50.1,29.57,ESE,119,0.0,4.0,71,0.00,,,0.00,Wunderground v.1.15,2013-09-01 02:50:00,
2013-08-31 20:55:00,59.1,49.7,29.57,ESE,119,0.0,4.0,71,0.00,,,0.00,Wunderground v.1.15,2013-09-01 02:55:00,
2013-08-31 21:00:00,58.9,49.5,29.57,ESE,119,0.0,4.0,71,0.00,,,0.00,Wunderground v.1.15,2013-09-01 03:00:00,
2013-08-31 21:05:00,58.7,49.7,29.57,ESE,119,0.0,4.0,72,0.00,,,0.00,Wunderground v.1.15,2013-09-01 03:05:00,
2013-08-31 21:10:00,58.4,49.4,29.57,ESE,119,0.0,4.0,72,0.00,,,0.00,Wunderground v.1.15,2013-09-01 03:10:00,
2013-08-31 21:15:00,58.1,49.5,29.57,ESE,119,0.0,4.0,73,0.00,,,0.00,Wunderground v.1.15,2013-09-01 03:15:00,
2013-08-31 21:20:00,58.0,49.4,29.57,ESE,119,0.0,4.0,73,0.00,,,0.00,Wunderground v.1.15,2013-09-01 03:20:00,
2013-08-31 21:25:00,57.8,49.2,29.57,ESE,119,0.0,4.0,73,0.00,,,0.00,Wunderground v.1.15,2013-09-01 03:25:00,
2013-08-31 21:30:00,57.5,48.9,29.57,ESE,119,0.0,4.0,73,0.00,,,0.00,Wunderground v.1.15,2013-09-01 03:30:00,
2013-08-31 21:35:00,57.3,49.1,29.57,ESE,119,0.0,4.0,74,0.00,,,0.00,Wunderground v.1.15,2013-09-01 03:35:00,
2013-08-31 21:40:00,57.3,49.1,29.57,ESE,119,0.0,4.0,74,0.00,,,0.00,Wunderground v.1.15,2013-09-01 03:40:00,
2013-08-31 21:45:00,57.3,49.1,29.57,ESE,119,0.0,4.0,74,0.00,,,0.00,Wunderground v.1.15,2013-09-01 03:45:00,
2013-08-31 21:50:00,57.3,49.1,29.57,ESE,119,0.0,4.0,74,0.00,,,0.00,Wunderground v.1.15,2013-09-01 03:50:00,
2013-08-31 21:55:00,57.1,48.9,29.57,ESE,119,0.0,4.0,74,0.00,,,0.00,Wunderground v.1.15,2013-09-01 03:55:00,
2013-08-31 22:00:00,57.1,49.2,29.58,ESE,119,0.0,4.0,75,0.00,,,0.00,Wunderground v.1.15,2013-09-01 04:00:00,
2013-08-31 22:05:00,57.1,49.2,29.57,ESE,119,0.0,4.0,75,0.00,,,0.00,Wunderground v.1.15,2013-09-01 04:05:00,
2013-08-31 22:10:00,57.1,49.2,29.57,ESE,119,0.0,4.0,75,0.00,,,0.00,Wunderground v.1.15,2013-09-01 04:10:00,
2013-08-31 22:15:00,57.2,49.3,29.57,ESE,119,0.0,4.0,75,0.00,,,0.00,Wunderground v.1.15,2013-09-01 04:15:00,
2013-08-31 22:25:00,57.2,49.3,29.57,ESE,119,0.0,4.0,75,0.00,,,0.00,Wunderground v.1.15,2013-09-01 04:25:00,
2013-08-31 22:30:00,57.0,49.5,29.57,ESE,119,0.0,4.0,76,0.00,,,0.00,Wunderground v.1.15,2013-09-01 04:30:00,
2013-08-31 22:40:00,57.0,49.2,29.57,ESE,119,0.0,4.0,75,0.00,,,0.00,Wunderground v.1.15,2013-09-01 04:40:00,
2013-08-31 22:45:00,57.0,49.2,29.57,ESE,119,0.0,4.0,75,0.00,,,0.00,Wunderground v.1.15,2013-09-01 04:45:00,
2013-08-31 22:50:00,57.0,48.8,29.57,ESE,119,0.0,4.0,74,0.00,,,0.00,Wunderground v.1.15,2013-09-01 04:50:00,
2013-08-31 23:00:00,57.3,48.3,29.57,ESE,119,0.0,4.0,72,0.00,,,0.00,Wunderground v.1.15,2013-09-01 05:00:00,
2013-08-31 23:05:00,57.6,47.9,29.57,ESE,119,0.0,4.0,70,0.00,,,0.00,Wunderground v.1.15,2013-09-01 05:05:00,
2013-08-31 23:10:00,57.8,47.3,29.57,SE,130,0.0,4.0,68,0.00,,,0.00,Wunderground v.1.15,2013-09-01 05:10:00,
2013-08-31 23:15:00,58.4,47.5,29.57,SE,136,0.0,4.0,67,0.00,,,0.00,Wunderground v.1.15,2013-09-01 05:15:00,
2013-08-31 23:20:00,58.8,47.9,29.57,SE,139,0.0,4.0,67,0.00,,,0.00,Wunderground v.1.15,2013-09-01 05:20:00,
2013-08-31 23:25:00,59.0,48.1,29.57,SE,140,0.0,4.0,67,0.00,,,0.00,Wunderground v.1.15,2013-09-01 05:25:00,
2013-08-31 23:30:00,59.1,48.1,29.57,SE,140,0.0,4.0,67,0.00,,,0.00,Wunderground v.1.15,2013-09-01 05:30:00,
2013-08-31 23:35:00,59.2,48.2,29.57,SE,140,0.0,4.0,67,0.00,,,0.00,Wunderground v.1.15,2013-09-01 05:35:00,
2013-08-31 23:40:00,59.2,48.2,29.57,SE,140,0.0,4.0,67,0.00,,,0.00,Wunderground v.1.15,2013-09-01 05:40:00,
2013-08-31 23:45:00,59.1,47.7,29.57,SE,140,0.0,4.0,66,0.00,,,0.00,Wunderground v.1.15,2013-09-01 05:45:00,
2013-08-31 23:50:00,59.1,47.7,29.57,SE,140,0.0,4.0,66,0.00,,,0.00,Wunderground v.1.15,2013-09-01 05:50:00,
2013-08-31 23:55:00,59.2,47.8,29.57,SE,140,0.0,4.0,66,0.00,,,0.00,Wunderground v.1.15,2013-09-01 05:55:00,